Redding, CA

6:39 PM PST on December 09, 2019 (GMT -0800)
Redding Municipal

Weather History for KRDD - November, 2019

Change the Weather History Date:

Sunday, November 17, 2019

  Actual Average Record
Temperature  
Mean Temperature 67 °F -  
Max Temperature 87 °F 62 °F 83 °F (1936)
Min Temperature 46 °F 40 °F 29 °F (2014)
Degree Days  
Heating Degree Days 0    
Cooling Degree Days 2    
Growing Degree Days 16 (Base 50)    
Moisture  
Dew Point 39 °F    
Average Humidity 39    
Maximum Humidity 60    
Minimum Humidity 18    
Precipitation  
Precipitation 0.00 in 0.15 in 2.40 in (2012)
Month to date precipitation 0.00 2.20  
Year to date precipitation 32.66 26.07  
Sea Level Pressure  
Sea Level Pressure 30.05 in    
Wind  
Wind Speed 5 mph (NNW)    
Max Wind Speed 15 mph    
Max Gust Speed 21 mph    
Visibility 10 miles    
Events      
T = Trace of Precipitation, MM = Missing Value Source: NWS Daily Summary

Daily Weather History Graph

Daily Weather History Graph

Search for Another Location

Airport or City:

Astronomy

Nov. 17, 2019 Rise Set
Actual Time 6:57 AM PST 4:50 PM PST
Civil Twilight 6:28 AM PST 5:19 PM PST
Nautical Twilight 5:55 AM PST 5:52 PM PST
Astronomical Twilight 5:22 AM PST 6:24 PM PST
Moon 9:32 PM PST (11/17) 11:48 AM PST (11/17)
Length of Visible Light 10h 51m
Length of Day
9h 52m
Waning Gibbous, 72% of the Moon is Illuminated
Nov 17
Waning Gibbous
Nov 19
Last Quarter
Nov 26
New
Dec 3
First Quarter
Dec 11
Full

Hourly Weather History & Observations

Time (PST) Temp. Dew Point Humidity Pressure Visibility Wind Dir Wind Speed Gust Speed Precip Events Conditions
12:53 AM 69.1 °F 32.0 °F 25% 30.09 in 10.0 mi North 10.4 mph - N/A   Clear
1:53 AM 68.0 °F 33.1 °F 27% 30.09 in 10.0 mi North 10.4 mph - N/A   Clear
2:53 AM 66.9 °F 32.0 °F 27% 30.09 in 10.0 mi NNW 8.1 mph - N/A   Clear
3:53 AM 53.1 °F 35.1 °F 50% 30.11 in 10.0 mi Calm Calm - N/A   Clear
4:53 AM 51.1 °F 35.1 °F 54% 30.11 in 10.0 mi Calm Calm - N/A   Clear
5:53 AM 51.1 °F 36.0 °F 56% 30.11 in 10.0 mi Calm Calm - N/A   Clear
7:53 AM 50.0 °F 35.1 °F 57% 30.14 in 10.0 mi Calm Calm - N/A   Clear
8:53 AM 55.9 °F 35.1 °F 45% 30.14 in 10.0 mi Calm Calm - N/A   Clear
9:53 AM 62.1 °F 36.0 °F 38% 30.13 in 10.0 mi Calm Calm - N/A   Clear
10:53 AM 71.1 °F 36.0 °F 28% 30.10 in 10.0 mi SSE 3.5 mph - N/A   Clear
11:53 AM 75.9 °F 37.9 °F 25% 30.07 in 10.0 mi SSE 4.6 mph - N/A   Clear
12:53 PM 82.0 °F 37.0 °F 20% 30.03 in 10.0 mi Calm Calm - N/A   Clear
1:53 PM 84.9 °F 37.0 °F 18% 30.01 in 10.0 mi NW 6.9 mph - N/A   Clear
2:53 PM 87.1 °F 39.9 °F 19% 29.99 in 10.0 mi North 6.9 mph - N/A   Clear
3:53 PM 86.0 °F 42.1 °F 21% 29.99 in 10.0 mi North 9.2 mph - N/A   Clear
4:53 PM 82.0 °F 42.1 °F 24% 29.99 in 10.0 mi North 8.1 mph - N/A   Clear
5:53 PM 80.1 °F 39.9 °F 24% 30.00 in 10.0 mi North 11.5 mph - N/A   Clear
6:53 PM 75.9 °F 44.1 °F 32% 30.00 in 10.0 mi NNW 6.9 mph - N/A   Clear
7:53 PM 72.0 °F 45.0 °F 38% 30.01 in 10.0 mi NW 3.5 mph - N/A   Clear
8:53 PM 70.0 °F 45.0 °F 41% 30.00 in 10.0 mi WNW 5.8 mph - N/A   Clear
9:53 PM 72.0 °F 45.0 °F 38% 29.99 in 10.0 mi NNW 6.9 mph - N/A   Clear
10:53 PM 60.1 °F 43.0 °F 53% 29.99 in 10.0 mi SE 3.5 mph - N/A   Clear
11:53 PM 59.0 °F 42.1 °F 53% 29.99 in 10.0 mi Calm Calm - N/A   Clear